Weather Roundup
Issued by NWS

Home | Current Version | Previous Version | Graphics & Text | Print | Product List | Glossary Off
Versions: 1 2 3 4 5 6 7 8 9 10 11 12 13 14 15 16 17 18 19 20 21 22 23 24 25 26 27 28 29 30 31 32 33 34 35 36 37 38 39 40 41 42 43 44 45 46 47 48 49 50

000
NZUS93 KARX 152359
HRRWXR

CURRENT HOURLY OBSERVATIONS ACROSS
MUCH OF THE UPPER MISSISSIPPI VALLEY
NATIONAL WEATHER SERVICE LA CROSSE WI
700 PM CDT TUE APR 15 2014


...SOUTHEAST MINNESOTA...


CITY           SKY/WX    TMP DP  RH WIND       PRES   REMARKS
ROCHESTER      CLOUDY    33  16  49 S8        30.05F WCI  26
ROCHESTER/MAYO CLOUDY    33   9  35 S7        30.06S WCI  27
WINONA         PTCLDY    36  14  41 SW3       30.10R
AUSTIN         MOCLDY    34  12  40 S8        30.05S WCI  27
ALBERT LEA     MOCLDY    36  10  35 S7        30.03F WCI  30
DODGE CENTER   CLOUDY    36  10  35 S7        30.04F WCI  30
PRESTON        CLOUDY    34  15  45 SW5       30.07S WCI  30
OWATONNA       MOCLDY    36  12  38 S5        30.05S WCI  32
FARIBAULT      CLOUDY    39   1  20 SE5       30.05S
$$

...ELSEWHERE IN MINNESOTA...


CITY           SKY/WX    TMP DP  RH WIND       PRES   REMARKS
MINNEAPOLIS    CLOUDY    35   2  24 SW3       30.05S
INTNL FALLS    CLEAR     28  -1  28 CALM      30.03S
DULUTH         CLEAR     30  -1  26 W3        30.01S
RED WING       MOCLDY    36   9  32 S6        30.07R WCI  31
REDWOOD FALLS  CLOUDY    38  11  32 E12       29.98F WCI  30
MANKATO        PTCLDY    36   7  30 S9        30.04S WCI  29
WORTHINGTON    MOSUNNY   41  19  42 SE16G22   29.94S
FAIRMONT       MOSUNNY   37  16  41 S14       30.01S WCI  29
$$

...SOUTHWEST WISCONSIN...


CITY           SKY/WX    TMP DP  RH WIND       PRES   REMARKS
LA CROSSE      CLEAR     37  12  35 CALM      30.09S
PRAIRIE DU CHI CLEAR     37  12  35 W6        30.11S WCI  33
BOSCOBEL       CLEAR     38  12  34 SW6       30.12R WCI  33
LONE ROCK      NOT AVBL
PLATTEVILLE    CLEAR     36  17  46 SW8       30.11S WCI  30
FORT MC COY    CLEAR     35   7  31 W5        30.10S WCI  31
VIROQUA        FAIR      33  15  46 W7        30.08R WCI  27
WIS DELLS      CLEAR     33  14  46 CALM      30.10S
$$

...ELSEWHERE IN WISCONSIN...


CITY           SKY/WX    TMP DP  RH WIND       PRES   REMARKS
MILWAUKEE      MOCLDY    31  19  61 SE12      30.15R WCI  22
MADISON        PTCLDY    35  13  40 VRB3      30.12R
GREEN BAY      CLOUDY    31  15  52 W10       30.12R WCI  22
EAU CLAIRE     CLEAR     35   5  28 SW8       30.07R WCI  29
BLACK RVR FLS  FAIR      35   9  32 SW5       30.08S WCI  31
MEDFORD        PTCLDY    30  11  46 SW7       30.04R WCI  23
WAUSAU         CLEAR     28   9  44 W8        30.06R WCI  20
WIS RAPIDS     MOCLDY    31  11  43 SW7       30.10R WCI  24
MARSHFIELD     CLEAR     31   9  39 W6        30.06R WCI  25
RICE LAKE      NOT AVBL
$$

...NORTHEAST IOWA...


CITY           SKY/WX    TMP DP  RH WIND       PRES   REMARKS
WATERLOO       CLEAR     37  13  37 SW8       30.08F WCI  31
DUBUQUE        CLEAR     35  16  45 W6        30.10S WCI  30
DECORAH        PTCLDY    36  12  38 CALM      30.08R
MASON CITY     PTCLDY    37  16  42 S9        30.05F WCI  30
CHARLES CITY   CLOUDY    36  14  41 SW7       30.08S WCI  30
OELWEIN        CLEAR    N/A N/A N/A S6        30.09S
$$

...ELSEWHERE IN IOWA...


CITY           SKY/WX    TMP DP  RH WIND       PRES   REMARKS
DES MOINES     PTCLDY    46  20  35 S13       30.04F
IOWA CITY      CLEAR     40  15  36 W3        30.13F
FORT DODGE     CLEAR     43  25  49 S13G20    30.02F
MARSHALLTOWN   CLEAR     40  22  48 S8        30.06F WCI  34
CEDAR RAPIDS   CLEAR     39  13  34 SW6       30.09F WCI  35
$$

...NORTHERN ILLINOIS...


CITY           SKY/WX    TMP DP  RH WIND       PRES   REMARKS
CHICAGO-OHARE  MOCLDY    36  15  42 W9        30.14S WCI  29
DUPAGE         PTCLDY    35  19  52 SW8       30.14S WCI  29
CHICAGO-MIDWAY MOCLDY    35  19  52 SE10      30.16R WCI  27
MOLINE         CLEAR     40   9  28 W7        30.13F
ROCKFORD       MOCLDY    37  15  40 SW5       30.15R WCI  33
STERLING       CLEAR     39  18  41 NW8       30.14S WCI  34
PEORIA         CLEAR     42  15  33 W6        30.16S
$$

NOTE: "FAIR" INDICATES FEW OR NO CLOUDS BELOW 12,000 FEET WITH NO
SIGNIFICANT WEATHER AND/OR OBSTRUCTIONS TO VISIBILITY. WIND
SPEEDS ARE IN MILES-PER-HOUR.



USA.gov is the U.S. government's official web portal to all federal, state and local government web resources and services.